Skip Page Navigation
NASA JPL Caltech
NASA Logo - Jet Propulsion Laboratory + View the NASA Portal
+ Near-Earth Object (NEO) Program
Search JPL
JPL Home Earth Solar System Stars & Galaxies Technology
JPL Solar System Dynamics
BODIES ORBITS EPHEMERIDES TOOLS PHYSICAL DATA DISCOVERY FAQ SITE MAP
JPL Small-Body Database Browser
Search: [ help ]  
5694 Berenyi (3051 P-L)
Classification: Main-belt Asteroid          SPK-ID: 2005694
Ephemeris | Orbit Diagram | Orbital Elements | Physical Parameters | Discovery Circumstances ]

[ show orbit diagram ]
Orbital Elements at Epoch 2456800.5 (2014-May-23.0) TDB
Reference: JPL 8 (heliocentric ecliptic J2000)
 Element Value Uncertainty (1-sigma)   Units 
e .1699924459676384 6.6884e-08  
a 2.606227664098688 1.6303e-08 AU
q 2.163188648730027 1.8029e-07 AU
i 12.25232958343962 8.839e-06 deg
node 227.5913535269918 3.0425e-05 deg
peri 79.41704764418346 4.0442e-05 deg
M 313.7839756759913 2.595e-05 deg
tp 2456997.790891253909
(2014-Dec-06.29089125)
0.00011141 JED
period 1536.798586426893
4.21
1.442e-05
3.948e-08
d
yr
n .2342532087025222 2.198e-09 deg/d
Q 3.049266679467348 1.9074e-08 AU
  Orbit Determination Parameters
   # obs. used (total)      819  
   data-arc span      21592 days (59.12 yr)  
   first obs. used      1955-05-22  
   last obs. used      2014-07-03  
   planetary ephem.      DE431  
   SB-pert. ephem.      SB431-BIG16  
   condition code      0  
   fit RMS      .50998  
   data source      ORB  
   producer      Otto Matic  
   solution date      2014-Jul-14 12:12:40  

Additional Information
 Earth MOID = 1.18787 AU 
 T_jup = 3.360 
[ show covariance matrix ]

Ephemeris | Orbit Diagram | Orbital Elements | Physical Parameters | Discovery Circumstances ]

Physical Parameter Table
Parameter Symbol Value Units Sigma Reference Notes
absolute magnitude H 13.1 mag n/a MPO265988  

5694 Berenyi (3051 P-L)          Discovered 1960-Sep-24 by van Houten and Gehrels at Palomar (675)
Reference: DISCOVERY.DBLast Updated: 2003-08-29

Alternate Designations
 3051 P-L = 1976 JT6 = 1989 NG 
Ephemeris | Orbit Diagram | Orbital Elements | Physical Parameters | Discovery Circumstances ]
ABOUT SSD CREDITS/AWARDS PRIVACY/COPYRIGHT GLOSSARY LINKS
FirstGov 2014-Aug-01 22:35 UT
(server date/time)  
NASA Home Page
Site Manager:   Donald K. Yeomans
Webmaster  Alan B. Chamberlin